OneWeb SL0538

operational
NORAD ID: 56047 Int'l Des: 2023-043 Owner: ONEWEBN Country: UK Constellation: oneweb
LEOCIRCULARPOLARONEWEB_TYPE

关于 OneWeb SL0538

正在加载描述...

实时位置

正在加载3D地球...

即将过境

高度历史

Altitude vs Time

uPlot chart will show altitude changes over time

两行轨道根数

1 56047U 23043B 25258.30724789 -.00002599 00000-0 -68321-2 0 9995
2 56047 87.8981 283.5601 0002353 92.7621 267.3779 13.16609575122807
Epoch: Sep 15, 2025 • Age: 8 hours

当前状态

高度 1208.9 km
速度 7.26 km/s
星下点 75.51°N, 127.43°W
发射日期 Mar 26, 2023
运行时间 2.4 years
类型 internet

技术详情

分类 Payload
质量 148.00 kg
干质量 140.00 kg
总质量 148.00 kg
长度 1.30 m
直径 1.00 m
跨度 5.00 m
形状 Trapezoid+2 pan
制造商 ONEWUS
平台类型 ARROW
阶段状态 In Orbit
所有者/国家 ONEWEBN/UK

大型星座

Loading constellations...